IGO122C VIDP-VOHS

Flight info

Callsign IGO122C
Flight time N/A
Altitude 35000
Route AKRIB7E AKRIB Z16 BULDI Q23 PEDMA/N0462F360 DCT SUSMA BINAT6
Aircraft A320/M-SDE3FGHIRWY/LB1

Departure

Time N/A
Airport Indira Gandhi International Airport (VIDP)

Arrival

Time 2026-05-04 07:40
Airport Rajiv Gandhi International Airport (VOHS)
Time Latitude Longitude Altitude Speed Heading
2026-05-04 06:25 24.95474 76.90676 34843 ft 445 kts 184°
2026-05-04 06:26 24.89289 76.90957 34845 ft 445 kts 184°
2026-05-04 06:26 24.83104 76.91228 34848 ft 445 kts 184°
2026-05-04 06:27 24.67650 76.91902 34850 ft 445 kts 184°
2026-05-04 06:28 24.61503 76.92176 34852 ft 445 kts 184°
2026-05-04 06:28 24.55313 76.92450 34853 ft 445 kts 184°
2026-05-04 06:29 24.49125 76.92710 34854 ft 445 kts 184°
2026-05-04 06:29 24.42938 76.92979 34827 ft 445 kts 184°
2026-05-04 06:30 24.36792 76.93253 34833 ft 445 kts 184°
2026-05-04 06:30 24.30610 76.93525 34841 ft 445 kts 184°
2026-05-04 06:31 24.24419 76.93794 34844 ft 445 kts 184°
2026-05-04 06:31 24.18229 76.94064 34852 ft 445 kts 184°
2026-05-04 06:33 23.93493 76.95142 34838 ft 446 kts 184°
2026-05-04 06:34 23.87340 76.95409 34844 ft 446 kts 184°
2026-05-04 06:34 23.81140 76.95678 34825 ft 446 kts 184°
2026-05-04 06:36 23.56356 76.96749 34852 ft 447 kts 184°
2026-05-04 06:37 23.50149 76.97020 34826 ft 447 kts 184°
2026-05-04 06:37 23.43927 76.97288 34839 ft 448 kts 184°
2026-05-04 06:38 23.37692 76.97558 34847 ft 449 kts 184°
2026-05-04 06:40 23.12733 76.99191 34850 ft 460 kts 173°
2026-05-04 06:40 23.06546 77.00789 34860 ft 461 kts 173°
2026-05-04 06:41 23.00301 77.02412 34868 ft 462 kts 173°
2026-05-04 06:41 22.94049 77.04030 34876 ft 462 kts 173°
2026-05-04 06:42 22.87834 77.05629 34856 ft 462 kts 173°
2026-05-04 06:44 22.62772 77.12055 34870 ft 463 kts 173°
2026-05-04 06:44 22.56538 77.13650 34851 ft 463 kts 172°
2026-05-04 06:45 22.50259 77.15254 34860 ft 464 kts 172°
2026-05-04 06:45 22.43977 77.16861 34864 ft 464 kts 172°
2026-05-04 06:46 22.37694 77.18471 34866 ft 464 kts 172°
2026-05-04 06:46 22.31460 77.20068 34867 ft 464 kts 172°
2026-05-04 06:48 22.06368 77.26542 34881 ft 464 kts 172°
2026-05-04 06:50 21.81246 77.33000 34873 ft 464 kts 172°
2026-05-04 06:51 21.74999 77.34592 34879 ft 464 kts 172°
2026-05-04 06:51 21.68713 77.36201 34879 ft 464 kts 172°
2026-05-04 06:52 21.62428 77.37806 34879 ft 464 kts 172°
2026-05-04 06:52 21.56137 77.39374 34876 ft 464 kts 173°
2026-05-04 06:53 21.49884 77.40827 34879 ft 463 kts 173°
2026-05-04 06:53 21.43581 77.42269 34877 ft 463 kts 173°
2026-05-04 06:54 21.37281 77.43727 34875 ft 463 kts 173°
2026-05-04 06:54 21.30984 77.45201 34854 ft 463 kts 173°
2026-05-04 06:55 21.24729 77.46676 34855 ft 463 kts 173°
2026-05-04 06:55 21.18435 77.48150 34852 ft 463 kts 173°
2026-05-04 06:57 20.93258 77.54011 34831 ft 464 kts 173°
2026-05-04 06:58 20.86943 77.55479 34840 ft 464 kts 173°
2026-05-04 06:58 20.80625 77.56956 34843 ft 465 kts 172°
2026-05-04 06:59 20.74306 77.58452 34846 ft 465 kts 172°
2026-05-04 06:59 20.67994 77.59953 34841 ft 465 kts 172°
2026-05-04 07:01 20.42746 77.65894 34851 ft 465 kts 172°
2026-05-04 07:02 20.36461 77.67359 34832 ft 465 kts 172°
2026-05-04 07:02 20.30144 77.68828 34834 ft 465 kts 172°
2026-05-04 07:03 20.23821 77.70314 34844 ft 465 kts 172°
2026-05-04 07:03 20.17496 77.71799 34846 ft 465 kts 172°
2026-05-04 07:04 20.11214 77.73275 34846 ft 465 kts 172°
2026-05-04 07:04 20.04891 77.74755 34851 ft 465 kts 172°
2026-05-04 07:05 19.98571 77.76233 34848 ft 465 kts 172°
2026-05-04 07:05 19.92264 77.77703 34853 ft 464 kts 172°
2026-05-04 07:06 19.82844 77.79907 34854 ft 464 kts 172°
2026-05-04 07:07 19.76539 77.81374 34850 ft 464 kts 172°
2026-05-04 07:09 19.51356 77.87221 34860 ft 464 kts 171°
2026-05-04 07:09 19.45042 77.88689 34865 ft 465 kts 172°
2026-05-04 07:10 19.38766 77.90138 34863 ft 465 kts 171°
2026-05-04 07:12 19.13508 77.96012 34876 ft 465 kts 171°
2026-05-04 07:12 19.07244 77.97475 34884 ft 464 kts 171°
2026-05-04 07:13 19.00913 77.98709 34877 ft 459 kts 180°
2026-05-04 07:13 18.94658 77.98003 34885 ft 449 kts 199°
2026-05-04 07:14 18.80449 77.91523 34879 ft 447 kts 207°
2026-05-04 07:15 18.74755 77.88847 34881 ft 448 kts 207°
2026-05-04 07:15 18.69072 77.86170 34879 ft 448 kts 207°
2026-05-04 07:16 18.63380 77.83486 34888 ft 448 kts 207°
2026-05-04 07:16 18.57727 77.80814 34899 ft 448 kts 207°
2026-05-04 07:17 18.52033 77.78131 34902 ft 448 kts 206°
2026-05-04 07:17 18.46341 77.75457 34903 ft 448 kts 206°
2026-05-04 07:18 18.40674 77.72795 34910 ft 448 kts 206°
2026-05-04 07:18 18.34983 77.70118 34911 ft 448 kts 206°
2026-05-04 07:19 18.29281 77.67446 34920 ft 448 kts 206°
2026-05-04 07:19 18.23581 77.64774 34925 ft 448 kts 206°
2026-05-04 07:20 18.17881 77.62105 34922 ft 448 kts 206°
2026-05-04 07:20 18.12181 77.59435 34718 ft 449 kts 206°
2026-05-04 07:22 17.91732 77.53825 29328 ft 428 kts 162°
2026-05-04 07:22 17.89142 77.55260 28759 ft 429 kts 147°
2026-05-04 07:23 17.86926 77.57368 28165 ft 433 kts 133°
2026-05-04 07:23 17.85052 77.59849 27579 ft 434 kts 131°
2026-05-04 07:23 17.83193 77.62340 26991 ft 433 kts 131°
2026-05-04 07:23 17.81337 77.64827 26413 ft 433 kts 130°
2026-05-04 07:24 17.79484 77.67311 25822 ft 432 kts 130°
2026-05-04 07:24 17.77637 77.69787 25247 ft 431 kts 130°
2026-05-04 07:24 17.75788 77.72262 24689 ft 431 kts 130°
2026-05-04 07:24 17.73942 77.74730 24143 ft 429 kts 130°
2026-05-04 07:25 17.72100 77.77191 23601 ft 428 kts 130°
2026-05-04 07:26 17.59602 77.93868 19924 ft 408 kts 128°
2026-05-04 07:27 17.57859 77.96199 19413 ft 405 kts 128°
2026-05-04 07:27 17.56145 77.98519 18914 ft 402 kts 128°
2026-05-04 07:27 17.54443 78.00840 18402 ft 399 kts 127°
2026-05-04 07:27 17.52764 78.03139 17848 ft 397 kts 127°
2026-05-04 07:28 17.51098 78.05423 17327 ft 392 kts 127°
2026-05-04 07:28 17.49448 78.07680 16826 ft 388 kts 128°
2026-05-04 07:28 17.47814 78.09906 16316 ft 383 kts 128°
2026-05-04 07:28 17.46195 78.12104 15807 ft 379 kts 128°
2026-05-04 07:29 17.44616 78.14248 15316 ft 375 kts 129°
2026-05-04 07:29 17.43032 78.16399 14819 ft 371 kts 129°
2026-05-04 07:29 17.41462 78.18528 14325 ft 368 kts 129°
2026-05-04 07:29 17.39907 78.20639 13825 ft 365 kts 129°
2026-05-04 07:30 17.38367 78.22733 13287 ft 361 kts 129°
2026-05-04 07:30 17.36843 78.24802 12828 ft 357 kts 129°
2026-05-04 07:30 17.35337 78.26844 12351 ft 352 kts 128°
2026-05-04 07:30 17.33865 78.28837 11884 ft 349 kts 129°
2026-05-04 07:31 17.32438 78.30890 11648 ft 339 kts 121°
2026-05-04 07:31 17.31525 78.33081 11530 ft 329 kts 107°
2026-05-04 07:33 17.31402 78.48064 10181 ft 270 kts 90°
2026-05-04 07:33 17.31438 78.50015 9719 ft 268 kts 90°
2026-05-04 07:33 17.31473 78.51958 9227 ft 266 kts 89°
2026-05-04 07:33 17.31509 78.53893 8736 ft 265 kts 89°
2026-05-04 07:34 17.31546 78.55821 8248 ft 264 kts 89°
2026-05-04 07:34 17.31582 78.57726 7870 ft 259 kts 88°
2026-05-04 07:34 17.31600 78.59590 7500 ft 254 kts 92°
2026-05-04 07:34 17.31060 78.61333 7170 ft 256 kts 126°
2026-05-04 07:35 17.29736 78.62498 6846 ft 256 kts 158°
2026-05-04 07:35 17.27990 78.62848 6450 ft 258 kts 177°
2026-05-04 07:35 17.26178 78.62987 6010 ft 263 kts 178°
2026-05-04 07:35 17.24373 78.62784 5577 ft 263 kts 206°
2026-05-04 07:36 17.23010 78.61613 5021 ft 251 kts 243°
2026-05-04 07:36 17.22665 78.59926 4678 ft 232 kts 281°
2026-05-04 07:38 17.22977 78.50163 2978 ft 155 kts 271°
2026-05-04 07:38 17.22963 78.49057 2799 ft 150 kts 273°
2026-05-04 07:38 17.22949 78.47969 2578 ft 149 kts 272°
2026-05-04 07:38 17.22942 78.46894 2397 ft 148 kts 275°
2026-05-04 07:39 17.22928 78.45800 2191 ft 150 kts 271°
2026-05-04 07:39 17.22900 78.44715 2016 ft 149 kts 271°
2026-05-04 07:39 17.22889 78.43726 1996 ft 116 kts 269°
2026-05-04 07:39 17.22881 78.43059 1996 ft 67 kts 270°
2026-05-04 07:40 17.22878 78.42739 1994 ft 33 kts 270°
2026-05-04 07:40 17.22919 78.42600 1994 ft 20 kts 295°
2026-05-04 07:40 17.22976 78.42488 1994 ft 13 kts 302°
2026-05-04 07:40 17.23029 78.42399 1993 ft 15 kts 302°
2026-05-04 07:41 17.23075 78.42297 1996 ft 16 kts 285°
2026-05-04 07:41 17.23158 78.42236 1998 ft 16 kts 355°
2026-05-04 07:41 17.23240 78.42239 1998 ft 12 kts
2026-05-04 07:41 17.23314 78.42263 1998 ft 9 kts 43°
2026-05-04 07:42 17.23326 78.42332 1998 ft 11 kts 90°
2026-05-04 07:42 17.23326 78.42415 1998 ft 12 kts 90°
2026-05-04 07:42 17.23344 78.42474 1998 ft 8 kts 26°
2026-05-04 07:42 17.23405 78.42483 1998 ft 8 kts
2026-05-04 07:43 17.23420 78.42484 1998 ft 0 kts